Miscellaneous Local Product
Issued by NWS Hastings, NE

Home | Current Version | Previous Version | Text Only | Print | Product List | Glossary Off
Versions: 1 2 3 4 5 6 7 8 9 10 11 12 13 14 15 16 17 18 19 20 21 22 23 24 25 26 27 28 29 30 31 32 33 34 35 36 37 38 39 40 41 42 43 44 45 46 47 48 49 50

000
AXUS43 KGID 262302
MISGRI

GID CWA HOURLY WEATHER ROUNDUP
NATIONAL WEATHER SERVICE HASTINGS NE
500 PM CST FRI DEC 26 2014

NOTE: "FAIR" INDICATES FEW OR NO CLOUDS BELOW 12,000 FEET WITH NO
SIGNIFICANT WEATHER AND/OR OBSTRUCTIONS TO VISIBILITY.

...SOUTH CENTRAL NEBRASKA...

CITY           SKY/WX    TMP DP  RH WIND       PRES   REMARKS
GRAND ISLAND   CLOUDY    25  22  88 N16       30.01S FOG     WCI  12
HASTINGS       LGT SNOW  26  23  88 N16       30.00R FOG     WCI  14
KEARNEY        CLOUDY    25  21  86 NW14      30.02R WCI  13
ORD            CLOUDY    24  17  74 N20       30.03R WCI  10
YORK           LGT SNOW  28  27  93 N17       30.00R WCI  16
AURORA         MIX PCPN  27  26  96 N17       30.00S WCI  15
LEXINGTON      LGT SNOW  25  21  87 N14       30.02F VSB 3/4 WCI  13
HOLDREGE       LGT SNOW  24  22  91 N13G20    30.00S WCI  13
HEBRON         CLOUDY    30  26  87 N10       30.00S WCI  21

...NEBRASKA PANHANDLE...

CITY           SKY/WX    TMP DP  RH WIND       PRES   REMARKS
CHADRON        CLOUDY    20  14  77 E6        30.08S WCI  12
ALLIANCE       LGT SNOW  18  14  84 N9        30.02R FOG     WCI   7
SCOTTSBLUFF    LGT SNOW  19  16  88 CALM      30.04R FOG
SIDNEY         CLOUDY    16  12  84 N8        30.01R WCI   5

...WESTERN AND NORTH CENTRAL NEBRASKA...

CITY           SKY/WX    TMP DP  RH WIND       PRES   REMARKS
VALENTINE      CLOUDY    20  17  88 N13       30.08F WCI   7
AINSWORTH      LGT SNOW  19  17  91 N15       30.07S WCI   5
ONEILL         LGT SNOW  23  21  95 N13G20    30.07S WCI  11
BROKEN BOW     LGT SNOW  24  19  81 N20       30.03R WCI  10
IMPERIAL       LGT SNOW  21  16  81 N16       30.02S WCI   7
NORTH PLATTE   LGT SNOW  22  18  85 N13       30.04R FOG     WCI  10
MCCOOK         LGT SNOW  24  21  88 N12       30.02R VSB 3/4 WCI  13

...EASTERN NEBRASKA...

CITY           SKY/WX    TMP DP  RH WIND       PRES   REMARKS
NORFOLK        CLOUDY    27  23  85 N16       30.02S FOG     WCI  15
SO SIOUX CITY  CLOUDY    31  26  82 N14       30.05R WCI  21
TEKAMAH        CLOUDY    33  29  85 N15       30.02S WCI  23
COLUMBUS       CLOUDY    27  21  80 N14G20    30.02S WCI  15
ALBION         CLOUDY    25  20  81 N18G24    30.01S WCI  11
OMAHA EPPLEY   CLOUDY    33  30  88 N13       30.00S WCI  24
OFFUTT AFB     CLOUDY    33  29  86 N8        29.99R WCI  26
MILLARD        CLOUDY    33  29  85 N7        29.99R WCI  27
LINCOLN        CLOUDY    31  27  85 N16       30.01R WCI  20
NEBRASKA CITY  CLOUDY    33  33 100 N10       29.98R FOG     WCI  24
BEATRICE       CLOUDY    31  29  91 N12       30.00R FOG     WCI  22
FALLS CITY     CLOUDY    35  31  85 N6        29.96S WCI  30

...NORTHERN KANSAS...

CITY           SKY/WX    TMP DP  RH WIND       PRES   REMARKS
GOODLAND       FLURRIES  21  17  84 N13       29.97F WCI   9
HILL CITY      LGT SNOW  27  23  85 N15       30.02R FOG     WCI  15
NORTON         LGT SNOW  25  21  86 N12       30.01R WCI  14
PHILLIPSBURG   LGT SNOW  30  28  93 N8        30.03R VSB 3/4 WCI  23
SMITH CENTER   LGT SNOW  27  25  93 N9        30.02R VSB 1   WCI  17
BELOIT         CLOUDY    30  28  93 N12       29.99S WCI  21
HAYS           CLOUDY    28  19  69 N10       30.00R WCI  19
RUSSELL        CLOUDY    29  28  96 N13       29.98R FOG     WCI  19
CONCORDIA      FRZ RAIN  30  30 100 N9        29.98F FOG     WCI  22
SALINA         CLOUDY    34  30  85 N12       29.98F WCI  25
TOPEKA         CLOUDY    39  34  82 N8        29.95S WCI  33



USA.gov is the U.S. government's official web portal to all federal, state and local government web resources and services.